This is the latest recevied weather packets stored in our database for station/object DL1GHN-6. If no packets are shown the sender has not sent any weather packets the latest 10 day(s).
| Time | Temp. | Humidity | Pressure | Rain* | Wind** | Luminosity | Snow |
|---|---|---|---|---|---|---|---|
| 1777289411 | 21.67° C | 47% | 1020.2 hPa | 0 mm | - | 740 W/m² | - |
| 1777289111 | 21.11° C | 44% | 1020.2 hPa | 0 mm | - | 682 W/m² | - |
| 1777288811 | 21.11° C | 44% | 1020.1 hPa | 0 mm | - | 758 W/m² | - |
| 1777288511 | 21.11° C | 47% | 1020.2 hPa | 0 mm | - | 810 W/m² | - |
| 1777288210 | 20.56° C | 47% | 1020.1 hPa | 0 mm | - | 772 W/m² | - |
| 1777287909 | 20.56° C | 47% | 1020.3 hPa | 0 mm | - | 789 W/m² | - |
| 1777287611 | 21.11° C | 49% | 1020.3 hPa | 0 mm | - | 759 W/m² | - |
| 1777287310 | 20.56° C | 45% | 1020.3 hPa | 0 mm | - | 788 W/m² | - |
| 1777287009 | 20° C | 48% | 1020.3 hPa | 0 mm | - | 763 W/m² | - |
| 1777286709 | 20° C | 51% | 1020.4 hPa | 0 mm | - | 789 W/m² | - |
| 1777286411 | 19.44° C | 49% | 1020.4 hPa | 0 mm | - | 770 W/m² | - |
| 1777286111 | 19.44° C | 46% | 1020.6 hPa | 0 mm | - | 779 W/m² | - |
| 1777285811 | 19.44° C | 51% | 1020.6 hPa | 0 mm | - | 728 W/m² | - |
| 1777285511 | 19.44° C | 49% | 1020.7 hPa | 0 mm | - | 780 W/m² | - |
| 1777285211 | 19.44° C | 45% | 1020.8 hPa | 0 mm | - | 775 W/m² | - |
| 1777284910 | 19.44° C | 51% | 1020.7 hPa | 0 mm | - | 770 W/m² | - |
| 1777284611 | 19.44° C | 50% | 1020.8 hPa | 0 mm | - | 765 W/m² | - |
| 1777284309 | 19.44° C | 51% | 1020.8 hPa | 0 mm | - | 754 W/m² | - |
| 1777284009 | 18.89° C | 54% | 1020.9 hPa | 0 mm | - | 751 W/m² | - |
| 1777283710 | 18.33° C | 54% | 1021 hPa | 0 mm | - | 729 W/m² | - |
| 1777283410 | 17.78° C | 54% | 1021.1 hPa | 0 mm | - | 733 W/m² | - |
| 1777283109 | 17.78° C | 53% | 1021 hPa | 0 mm | - | 714 W/m² | - |
| 1777282810 | 17.78° C | 52% | 1021.1 hPa | 0 mm | - | 728 W/m² | - |
| 1777282511 | 17.78° C | 51% | 1021.2 hPa | 0 mm | - | 719 W/m² | - |
| 1777282210 | 17.78° C | 54% | 1021.2 hPa | 0 mm | - | 700 W/m² | - |
* Rain latest hour (hover to see other rain measurements)
** Current wind speed in m/s (hover to see current wind gust speed)